06-12-2022, 00:00:00,    353,    0.0,    3.2,   0.00,   0.00, 1020.8,   83.1, -999.0
06-12-2022, 00:00:11,    353,    0.0,    3.1,   0.00,   0.00, 1020.8,   83.1, -999.0
06-12-2022, 00:00:21,    353,    0.0,    3.1,   0.00,   0.00, 1020.8,   83.1, -999.0
06-12-2022, 00:00:30,    353,    0.0,    3.0,   0.00,   0.00, 1020.8,   83.1, -999.0
06-12-2022, 00:00:41,    353,    0.0,    3.2,   0.00,   0.00, 1020.8,   83.1, -999.0
06-12-2022, 00:00:51,    353,    0.0,    3.1,   0.00,   0.00, 1020.8,   83.2, -999.0
06-12-2022, 00:01:01,    353,    0.0,    3.1,   0.00,   0.00, 1020.8,   83.2, -999.0
06-12-2022, 00:01:10,    353,    0.0,    3.1,   0.00,   0.00, 1020.8,   83.2, -999.0
06-12-2022, 00:01:21,    353,    0.0,    3.2,   0.00,   0.00, 1020.9,   83.2, -999.0
06-12-2022, 00:01:31,    353,    0.2,    3.2,   0.00,   0.00, 1020.9,   83.2, -999.0
06-12-2022, 00:01:40,    353,    0.6,    3.2,   0.00,   0.00, 1021.0,   83.5, -999.0
06-12-2022, 00:01:50,    353,    0.1,    3.1,   0.00,   0.00, 1020.9,   83.2, -999.0
06-12-2022, 00:02:01,    353,    0.0,    3.2,   0.00,   0.00, 1020.9,   83.0, -999.0
06-12-2022, 00:02:10,    353,    0.0,    3.1,   0.00,   0.00, 1020.9,   83.0, -999.0
06-12-2022, 00:02:20,    353,    0.0,    3.1,   0.00,   0.00, 1020.9,   83.0, -999.0
06-12-2022, 00:02:30,    353,    0.0,    3.1,   0.00,   0.00, 1020.8,   82.9, -999.0
06-12-2022, 00:02:40,    353,    0.0,    3.1,   0.00,   0.00, 1020.9,   82.9, -999.0
06-12-2022, 00:02:50,    353,    0.0,    3.1,   0.00,   0.00, 1020.9,   82.9, -999.0
06-12-2022, 00:03:00,    353,    0.0,    3.1,   0.00,   0.00, 1020.9,   82.9, -999.0
06-12-2022, 00:03:10,    353,    0.0,    3.0,   0.00,   0.00, 1020.8,   83.0, -999.0
06-12-2022, 00:03:20,    353,    0.0,    3.1,   0.00,   0.00, 1021.0,   83.3, -999.0
06-12-2022, 00:03:30,    353,    0.0,    3.0,   0.00,   0.00, 1020.9,   83.0, -999.0
06-12-2022, 00:03:40,    353,    0.0,    3.0,   0.00,   0.00, 1020.9,   82.9, -999.0
06-12-2022, 00:03:50,    353,    0.0,    3.1,   0.00,   0.00, 1020.9,   82.9, -999.0
06-12-2022, 00:04:00,    353,    0.0,    3.0,   0.00,   0.00, 1020.9,   83.0, -999.0
06-12-2022, 00:04:10,    353,    0.0,    3.0,   0.00,   0.00, 1020.9,   83.1, -999.0
06-12-2022, 00:04:20,    353,    0.0,    3.1,   0.00,   0.00, 1020.9,   83.2, -999.0
06-12-2022, 00:04:30,    353,    0.0,    3.1,   0.00,   0.00, 1020.9,   83.4, -999.0
06-12-2022, 00:04:40,    353,    0.2,    3.1,   0.00,   0.00, 1020.9,   83.4, -999.0
06-12-2022, 00:04:50,    353,    0.0,    3.1,   0.00,   0.00, 1020.9,   83.1, -999.0
06-12-2022, 00:05:00,    353,    0.0,    3.0,   0.00,   0.00, 1020.9,   83.2, -999.0
06-12-2022, 00:05:10,    353,    0.0,    3.0,   0.00,   0.00, 1020.9,   83.2, -999.0
06-12-2022, 00:05:20,    353,    0.0,    3.1,   0.00,   0.00, 1020.9,   83.3, -999.0
06-12-2022, 00:05:30,    353,    0.0,    3.0,   0.00,   0.00, 1020.8,   83.2, -999.0
06-12-2022, 00:05:40,    353,    0.0,    3.0,   0.00,   0.00, 1020.8,   83.3, -999.0
06-12-2022, 00:05:50,    353,    0.0,    3.0,   0.00,   0.00, 1020.9,   83.3, -999.0
06-12-2022, 00:06:00,    353,    0.0,    3.1,   0.00,   0.00, 1020.9,   83.4, -999.0
06-12-2022, 00:06:10,    353,    0.0,    3.0,   0.00,   0.00, 1020.8,   83.3, -999.0
06-12-2022, 00:06:20,    353,    0.0,    3.0,   0.00,   0.00, 1020.9,   83.5, -999.0
06-12-2022, 00:06:30,    353,    0.3,    3.0,   0.00,   0.00, 1021.0,   83.8, -999.0
06-12-2022, 00:06:40,    353,    0.5,    3.1,   0.00,   0.00, 1021.0,   83.9, -999.0
06-12-2022, 00:06:50,    353,    0.0,    3.0,   0.00,   0.00, 1020.9,   83.5, -999.0
06-12-2022, 00:06:59,    353,    0.0,    3.0,   0.00,   0.00, 1020.9,   83.5, -999.0
06-12-2022, 00:07:10,    353,    0.0,    3.0,   0.00,   0.00, 1020.9,   83.8, -999.0
06-12-2022, 00:07:20,    352,    0.0,    3.0,   0.00,   0.00, 1020.9,   83.8, -999.0
06-12-2022, 00:07:30,      5,    0.3,    3.0,   0.00,   0.00, 1020.9,   84.0, -999.0
06-12-2022, 00:07:39,      5,    0.1,    3.0,   0.00,   0.00, 1020.9,   83.9, -999.0
06-12-2022, 00:07:50,      4,    0.0,    3.0,   0.00,   0.00, 1020.9,   83.8, -999.0
06-12-2022, 00:08:00,      4,    0.0,    3.0,   0.00,   0.00, 1020.9,   83.8, -999.0
06-12-2022, 00:08:09,      4,    0.1,    3.0,   0.00,   0.00, 1020.9,   83.9, -999.0
06-12-2022, 00:08:19,      0,    0.6,    3.1,   0.00,   0.00, 1021.0,   84.1, -999.0
06-12-2022, 00:08:30,      0,    0.2,    3.1,   0.00,   0.00, 1021.0,   83.8, -999.0
06-12-2022, 00:08:39,      0,    0.0,    3.0,   0.00,   0.00, 1020.9,   83.6, -999.0
06-12-2022, 00:08:49,      0,    0.0,    3.0,   0.00,   0.00, 1020.9,   83.7, -999.0
06-12-2022, 00:08:59,      0,    0.0,    3.0,   0.00,   0.00, 1020.9,   83.8, -999.0
06-12-2022, 00:09:09,      0,    0.0,    3.0,   0.00,   0.00, 1020.9,   83.8, -999.0
06-12-2022, 00:09:19,      0,    0.0,    3.0,   0.00,   0.00, 1020.9,   83.8, -999.0
06-12-2022, 00:09:29,      0,    0.0,    3.0,   0.00,   0.00, 1020.9,   83.9, -999.0
06-12-2022, 00:09:39,      0,    0.0,    3.1,   0.00,   0.00, 1020.9,   83.9, -999.0
06-12-2022, 00:09:49,      0,    0.0,    3.0,   0.00,   0.00, 1020.9,   83.9, -999.0
06-12-2022, 00:09:59,      0,    0.0,    3.0,   0.00,   0.00, 1020.9,   83.9, -999.0
06-12-2022, 00:10:09,      0,    0.0,    3.0,   0.00,   0.00, 1020.9,   83.9, -999.0
06-12-2022, 00:10:19,      0,    0.0,    3.0,   0.00,   0.00, 1020.9,   84.0, -999.0
06-12-2022, 00:10:29,      0,    0.0,    3.1,   0.00,   0.00, 1020.9,   84.0, -999.0
06-12-2022, 00:10:39,      0,    0.0,    3.0,   0.00,   0.00, 1020.9,   84.0, -999.0
06-12-2022, 00:10:49,      0,    0.0,    3.0,   0.00,   0.00, 1020.9,   84.0, -999.0
06-12-2022, 00:10:59,      0,    0.0,    3.0,   0.00,   0.00, 1020.9,   83.9, -999.0
06-12-2022, 00:11:09,      0,    0.0,    3.1,   0.00,   0.00, 1020.9,   83.9, -999.0
06-12-2022, 00:11:19,      0,    0.0,    3.1,   0.00,   0.00, 1020.9,   83.8, -999.0
06-12-2022, 00:11:29,      0,    0.0,    3.0,   0.00,   0.00, 1020.9,   83.9, -999.0
06-12-2022, 00:11:39,      0,    0.0,    3.0,   0.00,   0.00, 1020.9,   83.9, -999.0
06-12-2022, 00:11:49,      0,    0.0,    3.0,   0.00,   0.00, 1020.9,   84.0, -999.0
06-12-2022, 00:11:59,      0,    0.0,    3.0,   0.00,   0.00, 1020.9,   83.9, -999.0
06-12-2022, 00:12:09,      0,    0.0,    3.0,   0.00,   0.00, 1021.0,   84.0, -999.0
06-12-2022, 00:12:19,      0,    0.0,    3.0,   0.00,   0.00, 1020.9,   84.0, -999.0
06-12-2022, 00:12:29,      0,    0.0,    3.0,   0.00,   0.00, 1020.9,   83.9, -999.0
06-12-2022, 00:12:39,      0,    0.0,    3.0,   0.00,   0.00, 1020.9,   84.0, -999.0
06-12-2022, 00:12:49,      0,    0.0,    3.0,   0.00,   0.00, 1021.0,   84.0, -999.0
06-12-2022, 00:12:59,      0,    0.0,    3.0,   0.00,   0.00, 1021.0,   84.1, -999.0
06-12-2022, 00:13:09,      0,    0.0,    3.1,   0.00,   0.00, 1021.0,   84.0, -999.0
06-12-2022, 00:13:19,      0,    0.2,    3.0,   0.00,   0.00, 1021.0,   84.2, -999.0
06-12-2022, 00:13:28,      0,    0.1,    3.0,   0.00,   0.00, 1021.0,   83.9, -999.0
06-12-2022, 00:13:39,      0,    0.0,    3.0,   0.00,   0.00, 1021.0,   83.9, -999.0
06-12-2022, 00:13:49,      0,    0.0,    3.0,   0.00,   0.00, 1021.0,   83.8, -999.0
06-12-2022, 00:13:59,      0,    0.0,    3.0,   0.00,   0.00, 1021.0,   83.8, -999.0
06-12-2022, 00:14:08,      0,    0.0,    3.0,   0.00,   0.00, 1021.0,   83.8, -999.0
06-12-2022, 00:14:19,      0,    0.0,    3.0,   0.00,   0.00, 1020.9,   83.8, -999.0
06-12-2022, 00:14:29,      0,    0.0,    3.0,   0.00,   0.00, 1020.9,   83.8, -999.0
06-12-2022, 00:14:38,      0,    0.0,    3.0,   0.00,   0.00, 1021.0,   83.8, -999.0
06-12-2022, 00:14:48,      0,    0.0,    3.0,   0.00,   0.00, 1021.0,   83.9, -999.0
06-12-2022, 00:14:59,      0,    0.0,    3.0,   0.00,   0.00, 1020.9,   83.9, -999.0
06-12-2022, 00:15:08,      0,    0.0,    3.0,   0.00,   0.00, 1020.9,   83.9, -999.0
06-12-2022, 00:15:18,      0,    0.0,    3.0,   0.00,   0.00, 1020.9,   83.9, -999.0
06-12-2022, 00:15:28,      0,    0.0,    3.0,   0.00,   0.00, 1020.9,   84.0, -999.0
06-12-2022, 00:15:39,      0,    0.0,    3.0,   0.00,   0.00, 1020.9,   84.0, -999.0
06-12-2022, 00:15:48,      0,    0.0,    3.0,   0.00,   0.00, 1020.9,   84.0, -999.0
06-12-2022, 00:15:58,      0,    0.0,    3.0,   0.00,   0.00, 1020.9,   84.1, -999.0
06-12-2022, 00:16:08,      0,    0.0,    2.9,   0.00,   0.00, 1020.9,   84.1, -999.0
06-12-2022, 00:16:18,      0,    0.0,    3.0,   0.00,   0.00, 1020.9,   84.2, -999.0
06-12-2022, 00:16:28,      0,    0.0,    3.0,   0.00,   0.00, 1020.9,   84.2, -999.0
06-12-2022, 00:16:38,      0,    0.0,    3.0,   0.00,   0.00, 1020.9,   84.3, -999.0
06-12-2022, 00:16:48,     42,    0.0,    2.9,   0.00,   0.00, 1020.9,   84.3, -999.0
06-12-2022, 00:16:58,     42,    0.0,    2.9,   0.00,   0.00, 1020.9,   84.3, -999.0
06-12-2022, 00:17:08,     42,    0.0,    2.9,   0.00,   0.00, 1020.9,   84.3, -999.0
06-12-2022, 00:17:18,     42,    0.0,    3.0,   0.00,   0.00, 1020.9,   84.3, -999.0
06-12-2022, 00:17:28,     42,    0.0,    3.0,   0.00,   0.00, 1020.9,   84.3, -999.0
06-12-2022, 00:17:38,     42,    0.0,    3.1,   0.00,   0.00, 1020.9,   84.3, -999.0
06-12-2022, 00:17:48,     42,    0.0,    3.0,   0.00,   0.00, 1020.9,   84.4, -999.0
06-12-2022, 00:17:59,     42,    0.0,    2.9,   0.00,   0.00, 1020.9,   84.3, -999.0
06-12-2022, 00:18:08,     42,    0.0,    3.0,   0.00,   0.00, 1020.9,   84.3, -999.0
06-12-2022, 00:18:18,     42,    0.0,    3.0,   0.00,   0.00, 1020.9,   84.3, -999.0
06-12-2022, 00:18:28,     42,    0.0,    3.0,   0.00,   0.00, 1020.9,   84.4, -999.0
06-12-2022, 00:18:38,     41,    0.0,    3.0,   0.00,   0.00, 1020.9,   84.4, -999.0
06-12-2022, 00:18:48,     42,    0.0,    2.8,   0.00,   0.00, 1020.8,   84.5, -999.0
06-12-2022, 00:18:58,     43,    0.0,    3.0,   0.00,   0.00, 1020.9,   84.5, -999.0
06-12-2022, 00:19:08,     42,    0.0,    3.0,   0.00,   0.00, 1020.9,   84.5, -999.0
06-12-2022, 00:19:18,     42,    0.0,    3.0,   0.00,   0.00, 1020.9,   84.6, -999.0
06-12-2022, 00:19:27,     42,    0.0,    3.0,   0.00,   0.00, 1020.9,   84.6, -999.0
06-12-2022, 00:19:38,     42,    0.0,    2.9,   0.00,   0.00, 1020.9,   84.6, -999.0
06-12-2022, 00:19:48,     42,    0.0,    2.9,   0.00,   0.00, 1020.9,   84.6, -999.0
06-12-2022, 00:19:58,     42,    0.0,    3.0,   0.00,   0.00, 1020.9,   84.6, -999.0
06-12-2022, 00:20:08,     42,    0.0,    3.0,   0.00,   0.00, 1020.9,   84.7, -999.0
06-12-2022, 00:20:18,     42,    0.0,    3.0,   0.00,   0.00, 1020.9,   84.7, -999.0
06-12-2022, 00:20:28,     42,    0.0,    3.0,   0.00,   0.00, 1020.8,   84.6, -999.0
06-12-2022, 00:20:37,     42,    0.0,    3.0,   0.00,   0.00, 1020.9,   84.7, -999.0
06-12-2022, 00:20:48,     42,    0.0,    3.0,   0.00,   0.00, 1020.8,   84.5, -999.0
06-12-2022, 00:20:58,     36,    0.0,    2.9,   0.00,   0.00, 1020.9,   84.5, -999.0
06-12-2022, 00:21:07,     36,    0.3,    2.9,   0.00,   0.00, 1020.9,   84.5, -999.0
06-12-2022, 00:21:17,     36,    0.1,    2.9,   0.00,   0.00, 1020.9,   84.5, -999.0
06-12-2022, 00:21:28,     36,    0.4,    3.0,   0.00,   0.00, 1021.0,   84.7, -999.0
06-12-2022, 00:21:37,     36,    0.2,    3.0,   0.00,   0.00, 1020.9,   84.5, -999.0
06-12-2022, 00:21:47,     35,    0.0,    2.9,   0.00,   0.00, 1020.9,   84.3, -999.0
06-12-2022, 00:21:57,     36,    0.0,    2.9,   0.00,   0.00, 1020.9,   84.3, -999.0
06-12-2022, 00:22:07,     36,    0.0,    2.9,   0.00,   0.00, 1020.9,   84.4, -999.0
06-12-2022, 00:22:17,     36,    0.0,    2.9,   0.00,   0.00, 1020.9,   84.4, -999.0
06-12-2022, 00:22:27,     35,    0.0,    2.9,   0.00,   0.00, 1020.9,   84.4, -999.0
06-12-2022, 00:22:37,     36,    0.0,    3.0,   0.00,   0.00, 1020.9,   84.5, -999.0
06-12-2022, 00:22:47,     35,    0.0,    2.9,   0.00,   0.00, 1020.9,   84.6, -999.0
06-12-2022, 00:22:57,     36,    0.0,    2.9,   0.00,   0.00, 1020.9,   84.7, -999.0
06-12-2022, 00:23:07,     36,    0.0,    2.9,   0.00,   0.00, 1020.9,   84.8, -999.0
06-12-2022, 00:23:17,     36,    0.0,    2.8,   0.00,   0.00, 1020.9,   84.8, -999.0
06-12-2022, 00:23:27,      3,    0.3,    2.9,   0.00,   0.00, 1021.0,   84.9, -999.0
06-12-2022, 00:23:37,      0,    0.2,    3.0,   0.00,   0.00, 1021.0,   84.8, -999.0
06-12-2022, 00:23:47,      0,    0.0,    3.0,   0.00,   0.00, 1020.9,   84.7, -999.0
06-12-2022, 00:23:57,      0,    0.0,    2.9,   0.00,   0.00, 1020.9,   84.8, -999.0
06-12-2022, 00:24:07,      0,    0.0,    2.9,   0.00,   0.00, 1020.9,   84.8, -999.0
06-12-2022, 00:24:17,      0,    0.0,    3.0,   0.00,   0.00, 1020.9,   84.8, -999.0
06-12-2022, 00:24:27,      0,    0.0,    2.9,   0.00,   0.00, 1020.9,   84.7, -999.0
06-12-2022, 00:24:37,      0,    0.0,    2.9,   0.00,   0.00, 1020.9,   84.7, -999.0
06-12-2022, 00:24:47,      0,    0.0,    2.9,   0.00,   0.00, 1020.9,   84.7, -999.0
06-12-2022, 00:24:57,      0,    0.0,    3.0,   0.00,   0.00, 1020.9,   84.6, -999.0
06-12-2022, 00:25:07,      0,    0.0,    2.9,   0.00,   0.00, 1020.9,   84.7, -999.0
06-12-2022, 00:25:17,      0,    0.0,    2.9,   0.00,   0.00, 1020.9,   84.7, -999.0
06-12-2022, 00:25:27,      0,    0.0,    2.9,   0.00,   0.00, 1020.8,   84.6, -999.0
06-12-2022, 00:25:37,      0,    0.0,    3.0,   0.00,   0.00, 1020.9,   84.7, -999.0
06-12-2022, 00:25:47,      0,    0.0,    2.8,   0.00,   0.00, 1020.9,   84.6, -999.0
06-12-2022, 00:25:57,      0,    0.0,    2.9,   0.00,   0.00, 1020.9,   84.5, -999.0
06-12-2022, 00:26:07,      0,    0.0,    2.9,   0.00,   0.00, 1020.9,   84.5, -999.0
06-12-2022, 00:26:17,      0,    0.0,    2.9,   0.00,   0.00, 1020.9,   84.5, -999.0
06-12-2022, 00:26:26,      0,    0.0,    2.9,   0.00,   0.00, 1020.9,   84.6, -999.0
06-12-2022, 00:26:37,      0,    0.0,    2.9,   0.00,   0.00, 1020.9,   84.7, -999.0
06-12-2022, 00:26:47,      0,    0.0,    2.9,   0.00,   0.00, 1020.8,   84.8, -999.0
06-12-2022, 00:26:57,      0,    0.0,    2.9,   0.00,   0.00, 1020.9,   85.0, -999.0
06-12-2022, 00:27:06,      0,    0.7,    3.0,   0.00,   0.00, 1021.0,   85.2, -999.0
06-12-2022, 00:27:17,      0,    0.0,    2.9,   0.00,   0.00, 1020.8,   84.8, -999.0
06-12-2022, 00:27:27,      0,    0.0,    2.9,   0.00,   0.00, 1020.8,   84.9, -999.0
06-12-2022, 00:27:36,      0,    0.0,    2.9,   0.00,   0.00, 1020.9,   84.9, -999.0
06-12-2022, 00:27:46,      0,    0.6,    2.9,   0.00,   0.00, 1021.0,   85.2, -999.0
06-12-2022, 00:27:57,      0,    0.0,    2.9,   0.00,   0.00, 1020.8,   84.8, -999.0
06-12-2022, 00:28:06,      0,    0.0,    2.9,   0.00,   0.00, 1020.8,   84.8, -999.0
06-12-2022, 00:28:16,      1,    0.0,    2.9,   0.00,   0.00, 1020.9,   84.9, -999.0
06-12-2022, 00:28:26,      0,    0.0,    2.9,   0.00,   0.00, 1020.9,   84.9, -999.0
06-12-2022, 00:28:37,      0,    0.0,    2.9,   0.00,   0.00, 1020.9,   84.9, -999.0
06-12-2022, 00:28:46,      0,    0.1,    2.9,   0.00,   0.00, 1020.9,   85.0, -999.0
06-12-2022, 00:28:56,      0,    0.7,    3.0,   0.00,   0.00, 1021.0,   85.2, -999.0
06-12-2022, 00:29:06,      0,    0.1,    2.9,   0.00,   0.00, 1020.9,   85.1, -999.0
06-12-2022, 00:29:16,      0,    0.0,    2.9,   0.00,   0.00, 1020.8,   84.8, -999.0
06-12-2022, 00:29:26,      0,    0.0,    2.9,   0.00,   0.00, 1020.8,   84.8, -999.0
06-12-2022, 00:29:36,      7,    0.0,    2.9,   0.00,   0.00, 1020.8,   84.9, -999.0
06-12-2022, 00:29:46,      0,    0.0,    3.0,   0.00,   0.00, 1020.8,   84.8, -999.0
06-12-2022, 00:29:56,      0,    0.0,    3.0,   0.00,   0.00, 1020.8,   84.9, -999.0
06-12-2022, 00:30:06,      0,    0.0,    2.9,   0.00,   0.00, 1020.8,   85.0, -999.0
06-12-2022, 00:30:16,      0,    0.0,    3.0,   0.00,   0.00, 1020.8,   85.0, -999.0
06-12-2022, 00:30:26,      0,    0.0,    3.0,   0.00,   0.00, 1020.8,   84.8, -999.0
06-12-2022, 00:30:36,      1,    0.5,    3.0,   0.00,   0.00, 1020.9,   85.1, -999.0
06-12-2022, 00:30:46,    332,    0.3,    3.0,   0.00,   0.00, 1020.9,   85.0, -999.0
06-12-2022, 00:30:56,    332,    0.0,    2.9,   0.00,   0.00, 1020.8,   84.5, -999.0
06-12-2022, 00:31:06,    332,    0.0,    2.9,   0.00,   0.00, 1020.8,   84.5, -999.0
06-12-2022, 00:31:16,    333,    0.0,    2.9,   0.00,   0.00, 1020.8,   84.5, -999.0
06-12-2022, 00:31:26,    332,    0.0,    2.9,   0.00,   0.00, 1020.8,   84.7, -999.0
06-12-2022, 00:31:36,    332,    0.0,    3.0,   0.00,   0.00, 1020.8,   84.8, -999.0
06-12-2022, 00:31:46,    333,    0.0,    2.9,   0.00,   0.00, 1020.8,   84.9, -999.0
06-12-2022, 00:31:56,    332,    0.0,    3.0,   0.00,   0.00, 1020.8,   84.9, -999.0
06-12-2022, 00:32:06,    333,    0.0,    3.0,   0.00,   0.00, 1020.8,   84.8, -999.0
06-12-2022, 00:32:16,    332,    0.0,    2.9,   0.00,   0.00, 1020.8,   84.8, -999.0
06-12-2022, 00:32:26,    332,    0.0,    2.9,   0.00,   0.00, 1020.8,   84.7, -999.0
06-12-2022, 00:32:36,    332,    0.0,    2.9,   0.00,   0.00, 1020.8,   84.7, -999.0
06-12-2022, 00:32:46,    332,    0.0,    2.9,   0.00,   0.00, 1020.8,   84.6, -999.0
06-12-2022, 00:32:56,    332,    0.3,    2.8,   0.00,   0.00, 1020.9,   84.7, -999.0
06-12-2022, 00:33:06,    332,    0.2,    2.9,   0.00,   0.00, 1020.9,   84.7, -999.0
06-12-2022, 00:33:16,    332,    0.0,    2.9,   0.00,   0.00, 1020.8,   84.5, -999.0
06-12-2022, 00:33:26,    332,    0.0,    3.0,   0.00,   0.00, 1020.8,   84.6, -999.0
06-12-2022, 00:33:35,    333,    0.1,    2.8,   0.00,   0.00, 1020.9,   84.7, -999.0
06-12-2022, 00:33:46,    332,    0.1,    2.9,   0.00,   0.00, 1020.9,   84.8, -999.0
06-12-2022, 00:33:56,    332,    0.0,    2.8,   0.00,   0.00, 1020.8,   84.6, -999.0
06-12-2022, 00:34:05,    332,    0.0,    2.8,   0.00,   0.00, 1020.8,   84.6, -999.0
06-12-2022, 00:34:16,    332,    0.0,    2.8,   0.00,   0.00, 1020.8,   84.7, -999.0
06-12-2022, 00:34:26,    332,    0.3,    2.9,   0.00,   0.01, 1020.9,   85.0, -999.0
06-12-2022, 00:34:36,    332,    0.0,    2.8,   0.00,   0.00, 1020.8,   84.8, -999.0
06-12-2022, 00:34:45,    332,    0.0,    2.8,   0.00,   0.00, 1020.8,   84.9, -999.0
06-12-2022, 00:34:55,    333,    0.0,    2.8,   0.00,   0.00, 1020.8,   84.9, -999.0
06-12-2022, 00:35:06,    332,    0.0,    2.8,   0.00,   0.00, 1020.8,   84.9, -999.0
06-12-2022, 00:35:15,    332,    0.0,    2.8,   0.00,   0.00, 1020.8,   85.1, -999.0
06-12-2022, 00:35:25,    333,    0.2,    2.9,   0.00,   0.00, 1020.8,   85.4, -999.0
06-12-2022, 00:35:35,    333,    0.4,    2.9,   0.00,   0.00, 1020.9,   85.6, -999.0
06-12-2022, 00:35:45,    332,    0.7,    2.9,   0.00,   0.00, 1020.9,   85.4, -999.0
06-12-2022, 00:35:55,    332,    0.0,    2.7,   0.00,   0.00, 1020.8,   84.8, -999.0
06-12-2022, 00:36:05,    332,    0.0,    2.8,   0.00,   0.00, 1020.8,   84.8, -999.0
06-12-2022, 00:36:15,    332,    0.0,    2.8,   0.00,   0.00, 1020.8,   84.8, -999.0
06-12-2022, 00:36:25,    332,    0.0,    2.8,   0.00,   0.00, 1020.8,   84.9, -999.0
06-12-2022, 00:36:35,    332,    0.0,    2.8,   0.00,   0.00, 1020.8,   85.0, -999.0
06-12-2022, 00:36:45,    332,    0.0,    3.0,   0.00,   0.00, 1020.8,   85.2, -999.0
06-12-2022, 00:36:55,    332,    0.0,    2.9,   0.00,   0.00, 1020.8,   85.3, -999.0
06-12-2022, 00:37:05,    332,    0.0,    2.9,   0.00,   0.00, 1020.8,   85.3, -999.0
06-12-2022, 00:37:15,    332,    0.0,    2.9,   0.00,   0.00, 1020.8,   85.3, -999.0
06-12-2022, 00:37:25,    332,    0.0,    2.8,   0.00,   0.00, 1020.8,   85.3, -999.0
06-12-2022, 00:37:35,    333,    0.0,    2.8,   0.00,   0.00, 1020.8,   85.3, -999.0
06-12-2022, 00:37:45,    332,    0.0,    2.8,   0.00,   0.00, 1020.8,   85.3, -999.0
06-12-2022, 00:37:55,    332,    0.0,    2.9,   0.00,   0.00, 1020.8,   85.4, -999.0
06-12-2022, 00:38:05,    332,    0.0,    2.9,   0.00,   0.00, 1020.8,   85.5, -999.0
06-12-2022, 00:38:15,    332,    0.0,    2.9,   0.00,   0.00, 1020.8,   85.5, -999.0
06-12-2022, 00:38:25,    332,    0.0,    2.9,   0.00,   0.00, 1020.8,   85.5, -999.0
06-12-2022, 00:38:35,    332,    0.0,    2.9,   0.00,   0.00, 1020.8,   85.4, -999.0
06-12-2022, 00:38:45,    332,    0.0,    2.8,   0.00,   0.00, 1020.8,   85.4, -999.0
06-12-2022, 00:38:55,    332,    0.0,    2.9,   0.00,   0.00, 1020.8,   85.3, -999.0
06-12-2022, 00:39:05,    332,    0.0,    2.9,   0.00,   0.00, 1020.8,   85.3, -999.0
06-12-2022, 00:39:15,    332,    0.0,    2.9,   0.00,   0.00, 1020.8,   85.3, -999.0
06-12-2022, 00:39:25,    332,    0.0,    2.8,   0.00,   0.00, 1020.8,   85.4, -999.0
06-12-2022, 00:39:35,    332,    0.0,    2.8,   0.00,   0.00, 1020.8,   85.5, -999.0
06-12-2022, 00:39:45,    332,    0.0,    2.8,   0.00,   0.00, 1020.8,   85.6, -999.0
06-12-2022, 00:39:55,    332,    0.0,    2.9,   0.00,   0.00, 1020.8,   85.6, -999.0
06-12-2022, 00:40:04,    332,    0.0,    2.8,   0.00,   0.00, 1020.8,   85.5, -999.0
06-12-2022, 00:40:15,    332,    0.0,    2.8,   0.00,   0.00, 1020.8,   85.5, -999.0
06-12-2022, 00:40:25,    332,    0.0,    2.8,   0.00,   0.00, 1020.8,   85.5, -999.0
06-12-2022, 00:40:34,    332,    0.0,    2.9,   0.00,   0.00, 1020.8,   85.7, -999.0
06-12-2022, 00:40:45,    332,    0.0,    2.8,   0.00,   0.00, 1020.8,   86.0, -999.0
06-12-2022, 00:40:55,    332,    0.0,    2.9,   0.00,   0.00, 1020.8,   85.9, -999.0
06-12-2022, 00:41:04,    332,    0.0,    2.9,   0.00,   0.00, 1020.8,   85.9, -999.0
06-12-2022, 00:41:14,    333,    0.0,    2.9,   0.00,   0.00, 1020.8,   85.8, -999.0
06-12-2022, 00:41:25,    332,    0.0,    2.9,   0.00,   0.00, 1020.8,   85.7, -999.0
06-12-2022, 00:41:35,    333,    0.0,    2.8,   0.00,   0.00, 1020.8,   85.7, -999.0
06-12-2022, 00:41:44,    332,    0.0,    2.9,   0.00,   0.00, 1020.8,   85.7, -999.0
06-12-2022, 00:41:54,    332,    0.2,    2.9,   0.00,   0.00, 1020.9,   85.9, -999.0
06-12-2022, 00:42:05,    332,    0.1,    2.9,   0.00,   0.00, 1020.8,   85.7, -999.0
06-12-2022, 00:42:14,    333,    0.2,    2.9,   0.00,   0.00, 1020.9,   85.7, -999.0
06-12-2022, 00:42:24,    332,    0.0,    2.9,   0.00,   0.00, 1020.8,   85.3, -999.0
06-12-2022, 00:42:34,    332,    0.0,    2.8,   0.00,   0.00, 1020.8,   85.3, -999.0
06-12-2022, 00:42:44,    332,    0.0,    2.9,   0.00,   0.00, 1020.8,   85.2, -999.0
06-12-2022, 00:42:54,    332,    0.0,    2.8,   0.00,   0.00, 1020.7,   85.2, -999.0
06-12-2022, 00:43:04,    332,    0.0,    2.8,   0.00,   0.00, 1020.8,   85.1, -999.0
06-12-2022, 00:43:14,    332,    0.0,    2.8,   0.00,   0.00, 1020.8,   85.1, -999.0
06-12-2022, 00:43:24,    332,    0.0,    2.9,   0.00,   0.00, 1020.8,   85.1, -999.0
06-12-2022, 00:43:34,    332,    0.0,    2.8,   0.00,   0.00, 1020.8,   85.1, -999.0
06-12-2022, 00:43:44,    332,    0.0,    2.8,   0.00,   0.00, 1020.8,   85.1, -999.0
06-12-2022, 00:43:54,    332,    0.0,    2.8,   0.00,   0.00, 1020.8,   85.2, -999.0
06-12-2022, 00:44:04,    333,    0.0,    2.8,   0.00,   0.00, 1020.8,   85.4, -999.0
06-12-2022, 00:44:14,    332,    0.4,    2.9,   0.00,   0.00, 1020.9,   85.6, -999.0
06-12-2022, 00:44:24,    332,    0.0,    2.8,   0.00,   0.00, 1020.8,   85.1, -999.0
06-12-2022, 00:44:34,    332,    0.0,    2.8,   0.00,   0.00, 1020.8,   85.1, -999.0
06-12-2022, 00:44:44,    332,    0.0,    2.8,   0.00,   0.00, 1020.8,   85.1, -999.0
06-12-2022, 00:44:54,    333,    0.0,    2.8,   0.00,   0.00, 1020.8,   85.4, -999.0
06-12-2022, 00:45:04,    332,    0.0,    2.9,   0.00,   0.00, 1020.8,   85.1, -999.0
06-12-2022, 00:45:14,     14,    0.2,    2.8,   0.00,   0.00, 1020.9,   85.2, -999.0
06-12-2022, 00:45:24,      7,    1.0,    2.8,   0.00,   0.00, 1020.9,   85.2, -999.0
06-12-2022, 00:45:34,     18,    0.6,    2.8,   0.00,   0.00, 1020.9,   85.2, -999.0
06-12-2022, 00:45:44,     16,    0.3,    2.8,   0.00,   0.00, 1020.9,   85.1, -999.0
06-12-2022, 00:45:54,     17,    0.5,    2.8,   0.00,   0.00, 1020.9,   85.2, -999.0
06-12-2022, 00:46:04,     16,    0.0,    2.8,   0.00,   0.00, 1020.8,   84.8, -999.0
06-12-2022, 00:46:14,     16,    0.0,    2.8,   0.00,   0.00, 1020.8,   84.7, -999.0
06-12-2022, 00:46:23,     16,    0.0,    2.8,   0.00,   0.00, 1020.8,   84.7, -999.0
06-12-2022, 00:46:34,     16,    0.0,    2.7,   0.00,   0.00, 1020.8,   84.8, -999.0
06-12-2022, 00:46:44,     16,    0.0,    2.7,   0.00,   0.00, 1020.8,   84.8, -999.0